Location: Mahannah Oil Field
(37.4664°N, 96.6003°W)
Time: 09:11:20
(UTC+00:00)

Courier 1B - Pass Details

Date: 21 January 2021
Orbit: 962 x 1209 km, 28.3° (Epoch: 02 March)

Event Time Altitude Azimuth Distance (km) Brightness Sun altitude
Rises 08:43:14 0° 252° (WSW) 3,639 - -57.5°
Reaches altitude 10° 08:46:03 10° 244° (WSW) 2,686 - -57.0°
Maximum altitude 08:51:55 37° 179° (S) 1,444 - -56.0°
Drops below altitude 10° 08:57:52 10° 114° (ESE) 2,729 - -54.9°
Exits shadow 09:00:03 - 107° (ESE) 3,464 10.8 -54.4°
Sets 09:00:45 0° 106° (ESE) 3,705 11.0 -54.3°
